Regional Weather Roundup
Issued by NWS Newport/Morehead, NC

Home | Current Version | Previous Version | Text Only | Print | Product List | Glossary On
Versions: 1 2 3 4 5 6 7 8 9 10 11 12 13 14 15 16 17 18 19 20 21 22 23 24 25 26 27 28 29 30 31 32 33 34 35 36 37 38 39 40 41 42 43 44 45 46 47 48 49 50
000
ASUS42 KMHX 251025
RWRMHX
WEATHER ROUNDUP FOR EASTERN NORTH CAROLINA
NATIONAL WEATHER SERVICE NEWPORT/MOREHEAD CITY NC
600 AM EDT TUE APR 25 2017

NOTE: "FAIR" INDICATES FEW OR NO CLOUDS BELOW 12,000 FEET
WITH NO SIGNIFICANT WEATHER AND/OR OBSTRUCTIONS TO VISIBILITY

NCZ015>017-031-032-045>047-102-103-251100-
NORTH COAST

CITY           SKY/WX    TMP DP  RH WIND       PRES   REMARKS
EDENTON        DRIZZLE   67  64  90 E16G28    29.49
ELIZABETH CITY CLOUDY    65  64  97 E24G35    29.55F
KITTY HAWK     RAIN      64  64 100 E18G31    29.51F
MANTEO         LGT RAIN  65  63  96 E29G38    29.53F

$$

NCZ045>047-081-094-103-104-251100-
CENTRAL COAST

CITY           SKY/WX    TMP DP  RH WIND       PRES   REMARKS
FRISCO         MOCLDY    67  60  78 SW12G20   29.55R HAZE

$$

NCZ095-097-098-100-101-251100-
SOUTHERN COAST

CITY           SKY/WX    TMP DP  RH WIND       PRES   REMARKS
BEAUFORT       CLOUDY    63  62  97 SW6       29.54F
CEDAR ISLAND   NOT AVBL
JACKSONVILLE   MOCLDY    64  64 100 W5        29.55S
PINEY ISLAND   CLOUDY   N/A N/A N/A W12       29.52R
WILMINGTON     CLOUDY    63  63 100 W3        29.57R FOG


$$

NCZ011>013-027>030-043-044-078>080-089-090>093-098-251100-
COASTAL PLAIN

CITY           SKY/WX    TMP DP  RH WIND       PRES   REMARKS
AHOSKIE        HVY RAIN  61  60  98 N10       29.58F
CLINTON        CLOUDY    62  62 100 SW3       29.59R
ELIZABETHTOWN  CLOUDY    61  61 100 CALM      29.57S FOG
GOLDSBORO      LGT RAIN  63  63 100 SE7       29.56F
GREENVILLE     RAIN      61  61 100 N9        29.61F
HAVELOCK       NOT AVBL
KENANSVILLE    LGT RAIN  63  63 100 CALM      29.57F
KINSTON        DRIZZLE   61  60  97 CALM      29.57S
NEW BERN       LGT RAIN  62  62 100 NW7       29.55F
RICHLANDS      CLOUDY    63  63 100 CALM      29.57S
ROCKY MOUNT    RAIN      60  60 100 NE6       29.61S FOG
WASHINGTON     RAIN      60  60  98 NW6       29.54F
WHITEVILLE     FOG       61  60  97 CALM      29.57R VSB 3/4

$$

AMZ130-135-150-152-154-156-158-170-250-252-270-ANZ085-086-088-633-658-670-251100-
MARINE OBSERVATIONS

STATION/POSITION TIME  TEMP    WIND        PRES    WAVE   SWELL
                       AIR SEA DIR/SP/G            HT/PER HT/PER
                 (UTC) (F)     (DEG/KT/KT) (MB)    (FT/S) (FT/S)
CHESAPEAKE LIGHT NOT AVBL
64 E VA BEACH    0950   62 54  110/ 21/ 25 1004.3   16/10  13/10
DUCK             1000   63 60   90/ 25/ 30 1000.1
2 E DUCK         1000      58                N/A    11/11   5/11
OREGON INLET     1000   66 63  110/ 17/ 22  999.9
13E OREGON INLT  0948      57                N/A    16/11  16/11
HATTERAS CG      1000   66 67  210/ 14/ 18 1000.4
DIAMOND BUOY     0950   74 77  220/ 21/ 29 1000.5   14/11  11/11
CAPE LOOKOUT     1000   65     200/  6/  6 1000.5
BEAUFORT LAB     1000   62 65  230/  2/  5  999.5
30 SE NEW RVR IN 1008   69     250/ 14/ 19 1000.8
30 SE NEW RVR IN 1013      71                N/A     9/10   5/11
27 SE WRIGHTSVLE 1008   70 72  230/ 12/ 17 1000.6
5 SE WRIGHTSVLE  1008   68 69  250/ 10/ 16 1000.7
225 S CAPE HAT   0950   70 75  270/ 16/ 19 1004.1   10/ 9   8/ 9
41 SE CHARLESTON 1010   66 72  270/ 17/ 21 1002.4

$$



USA.gov is the U.S. government's official web portal to all federal, state and local government web resources and services.